Regional Weather Roundup
Issued by NWS

Home | Current Version | Previous Version | Text Only | Print | Product List | Glossary On
Versions: 1 2 3 4 5 6 7 8 9 10 11 12 13 14 15 16 17 18 19 20 21 22 23 24 25 26 27 28 29 30 31 32 33 34 35 36 37 38 39 40 41 42 43 44 45 46 47 48 49 50
000
ASUS44 KLIX 171213
RWRLA
LOUISIANA WEATHER ROUNDUP
NATIONAL WEATHER SERVICE NEW ORLEANS LA
600 AM CST TUE JAN 17 2017

NOTE: "FAIR" INDICATES FEW OR NO CLOUDS BELOW 12,000 FEET WITH NO
      SIGNIFICANT WEATHER AND/OR OBSTRUCTIONS TO VISIBILITY.
      SKY/WX - SKY CONDITION AND SIGNIFICANT WEATHER.
      TMP - AIR TEMPERATURE.    DP   - DEWPOINT TEMPERATURE.
      RH  - RELATIVE HUMIDITY.  PRES - PRESSURE.
      HX  - HEAT INDEX.         WCI  - WIND CHILL INDEX.

*  THESE STATIONS ARE NOT NWS OR FAA STATIONS AND ARE NOT UNDER
   NWS QUALITY CONTROL.

LAZ040-048-061>063-065-066-069-171300-
SOUTHEAST LOUISIANA

CITY           SKY/WX    TMP DP  RH WIND       PRES   REMARKS
N.O. AUDUBON   NOT AVBL
N.O. INTL ARPT CLOUDY    67  67 100 SE6       30.12R
6HR MIN TEMP:  64; 6HR MAX TEMP:  67;

N.O. LAKEFRONT CLOUDY    67  67 100 S6        30.13R
6HR MIN TEMP:  66; 6HR MAX TEMP:  68;

N.O. DOWNTOWN*   N/A     68  67  96 S6        30.13R FOG
6HR MIN TEMP:  68; 6HR MAX TEMP:  69;

RESERVE*       CLOUDY    67  65  94 CALM      30.12R FOG
6HR MIN TEMP:  65; 6HR MAX TEMP:  67;

SLIDELL        CLOUDY    68  67  96 S5        30.12R
6HR MIN TEMP:  66; 6HR MAX TEMP:  68;

BATON ROUGE    CLOUDY    67  66  97 SE3       30.11R FOG
6HR MIN TEMP:  66; 6HR MAX TEMP:  71;

BOOTHVILLE     CLOUDY    64  64 100 SE6       30.13S
6HR MIN TEMP:  62; 6HR MAX TEMP:  66;

BELLE CHASSE   FOG       67  67 100 SE5       30.12R VSB 1
6HR MIN TEMP:  64; 6HR MAX TEMP:  68;

BOGALUSA*      CLOUDY    70  66  86 S6        30.13S
6HR MIN TEMP:  69; 6HR MAX TEMP:  70;

GALLIANO*      CLOUDY    68  66  92 CALM      30.12R FOG
6HR MIN TEMP:  68; 6HR MAX TEMP:  69;

NEW ROADS*     FAIR      67  66  95 S5        30.10S
6HR MIN TEMP:  65; 6HR MAX TEMP:  68;

GONZALES*      CLOUDY    68  68 100 SE5       30.11R
6HR MIN TEMP:  64; 6HR MAX TEMP:  68;

HAMMOND*       FOG       64  63  94 CALM      30.12S VSB 3/4
HOUMA*         CLOUDY    66  66 100 SE5       30.11R FOG
PORT FOURCHON* CLOUDY    70  68  94 SE7       30.12R FOG

$$

LAZ041-044-053-054-171300-
SOUTHWEST LOUISIANA

CITY           SKY/WX    TMP DP  RH WIND       PRES   REMARKS
LAKE CHARLES   MOCLDY    70  69  97 S12       30.06R
6HR MIN TEMP:  70; 6HR MAX TEMP:  71;

LAFAYETTE      CLOUDY    71  68  90 S7        30.09R
6HR MIN TEMP:  71; 6HR MAX TEMP:  72;

PATTERSON      CLOUDY    67  67 100 SE6       30.11R
6HR MIN TEMP:  66; 6HR MAX TEMP:  68;

SALT POINT     NOT AVBL
NEW IBERIA     CLOUDY    69  66  90 S12       30.09R
6HR MIN TEMP:  69; 6HR MAX TEMP:  70; 6HR PCP: TRACE;

CHENAULT AIRPK CLOUDY    69  68  98 S8        30.07R
6HR MIN TEMP:  69; 6HR MAX TEMP:  70;


$$

LAZ027-028-171300-
CENTRAL LOUISIANA

CITY           SKY/WX    TMP DP  RH WIND       PRES   REMARKS
FORT POLK      CLOUDY    70  68  94 S8        30.04S
6HR MIN TEMP:  68; 6HR MAX TEMP:  70; 6HR PCP:  0.01;

ALEXANDRIA INT CLOUDY    68  67  96 SE6       30.05R
6HR MIN TEMP:  67; 6HR MAX TEMP:  68; 6HR PCP: TRACE;

ALEXANDRIA     CLOUDY    69  68  96 S8        30.07R
6HR MIN TEMP:  68; 6HR MAX TEMP:  69; 6HR PCP: TRACE;


$$

LAZ001-002-171300-
NORTHWEST LOUISIANA

CITY           SKY/WX    TMP DP  RH WIND       PRES   REMARKS
SHREVEPORT     CLOUDY    54  49  83 N8        30.11R
6HR MIN TEMP:  54; 6HR MAX TEMP:  58; 6HR PCP:  0.01;

BARKSDALE AFB  CLOUDY    54  49  83 NW7       30.11R
6HR MIN TEMP:  54; 6HR MAX TEMP:  57; 6HR PCP:  0.02;

DTN SHREVEPORT CLOUDY    54  48  80 N6        30.11R
6HR MIN TEMP:  54; 6HR MAX TEMP:  58; 6HR PCP:  0.01;


$$

LAZ014-016-171300-
NORTHEAST LOUISIANA

CITY           SKY/WX    TMP DP  RH WIND       PRES   REMARKS
MONROE         TSTM      57  56  96 NW7       30.12R FOG
6HR MIN TEMP:  57; 6HR MAX TEMP:  69; 6HR PCP:  0.33;

TALLULAH       CLOUDY    66  64  93 S6        30.08R
6HR MIN TEMP:  63; 6HR MAX TEMP:  66;


$$




USA.gov is the U.S. government's official web portal to all federal, state and local government web resources and services.